TimeEST,TemperatureF,Dew PointF,Humidity,Sea Level PressureIn,VisibilityMPH,Wind Direction,Wind SpeedMPH,Gust SpeedMPH,PrecipitationIn,Events,Conditions,WindDirDegrees,DateUTC
12:15 AM,23.0,12.2,63,30.07,10.0,WNW,16.1,20.7,N/A,,Clear,300,2013-02-21 05:15:00
12:35 AM,23.0,10.4,59,30.08,10.0,NW,13.8,-,N/A,,Clear,310,2013-02-21 05:35:00
12:55 AM,23.0,12.2,63,30.07,10.0,WNW,16.1,21.9,N/A,,Scattered Clouds,300,2013-02-21 05:55:00
1:15 AM,23.0,12.2,63,30.06,10.0,NW,17.3,-,N/A,,Overcast,310,2013-02-21 06:15:00
1:35 AM,23.0,12.2,63,30.06,10.0,NW,17.3,23.0,N/A,,Mostly Cloudy,310,2013-02-21 06:35:00
1:55 AM,23.0,12.2,63,30.06,10.0,WNW,15.0,25.3,N/A,,Mostly Cloudy,300,2013-02-21 06:55:00
2:15 AM,23.0,12.2,63,30.06,10.0,WNW,13.8,24.2,N/A,,Mostly Cloudy,300,2013-02-21 07:15:00
2:35 AM,23.0,12.2,63,30.05,10.0,NW,17.3,21.9,N/A,,Mostly Cloudy,310,2013-02-21 07:35:00
2:55 AM,24.8,12.2,59,30.05,10.0,WNW,12.7,17.3,N/A,,Mostly Cloudy,300,2013-02-21 07:55:00
3:15 AM,24.8,12.2,59,30.05,10.0,NW,13.8,-,N/A,,Mostly Cloudy,310,2013-02-21 08:15:00
3:35 AM,24.8,12.2,59,30.05,10.0,NW,17.3,24.2,N/A,,Mostly Cloudy,310,2013-02-21 08:35:00
3:55 AM,24.8,12.2,59,30.05,10.0,NW,19.6,24.2,N/A,,Overcast,320,2013-02-21 08:55:00
4:15 AM,24.8,12.2,59,30.05,10.0,NW,13.8,-,N/A,,Overcast,310,2013-02-21 09:15:00
4:35 AM,24.8,12.2,59,30.05,10.0,NW,20.7,27.6,N/A,,Overcast,310,2013-02-21 09:35:00
4:55 AM,24.8,12.2,59,30.06,10.0,NW,19.6,27.6,N/A,,Mostly Cloudy,310,2013-02-21 09:55:00
5:15 AM,23.0,12.2,63,30.07,10.0,NW,20.7,28.8,N/A,,Mostly Cloudy,310,2013-02-21 10:15:00
5:35 AM,23.0,12.2,63,30.08,10.0,WNW,15.0,24.2,N/A,,Mostly Cloudy,300,2013-02-21 10:35:00
5:55 AM,24.8,12.2,59,30.08,10.0,NW,15.0,19.6,N/A,,Mostly Cloudy,310,2013-02-21 10:55:00
6:15 AM,24.8,12.2,59,30.08,10.0,NW,16.1,25.3,N/A,,Overcast,320,2013-02-21 11:15:00
6:35 AM,24.8,10.4,54,30.08,10.0,NW,16.1,25.3,N/A,,Overcast,310,2013-02-21 11:35:00
7:15 AM,24.8,12.2,59,30.09,10.0,WNW,16.1,20.7,N/A,,Overcast,300,2013-02-21 12:15:00
7:35 AM,26.6,12.2,55,30.09,10.0,WNW,13.8,18.4,N/A,,Overcast,300,2013-02-21 12:35:00
7:55 AM,26.6,12.2,55,30.10,10.0,WNW,11.5,21.9,N/A,,Overcast,290,2013-02-21 12:55:00
8:15 AM,26.6,12.2,55,30.11,10.0,West,12.7,23.0,N/A,,Overcast,280,2013-02-21 13:15:00
8:35 AM,26.6,12.2,55,30.11,10.0,WNW,16.1,24.2,N/A,,Overcast,300,2013-02-21 13:35:00
8:55 AM,28.4,12.2,51,30.12,10.0,WNW,18.4,23.0,N/A,,Overcast,300,2013-02-21 13:55:00
9:15 AM,28.4,14.0,55,30.12,10.0,WNW,15.0,25.3,N/A,Snow,Light Snow,300,2013-02-21 14:15:00
9:35 AM,28.4,14.0,55,30.12,10.0,NW,16.1,24.2,N/A,,Overcast,310,2013-02-21 14:35:00
9:55 AM,28.4,14.0,55,30.13,10.0,NW,18.4,21.9,N/A,,Overcast,310,2013-02-21 14:55:00
10:15 AM,28.4,14.0,55,30.13,10.0,NW,17.3,26.5,N/A,Snow,Light Snow,320,2013-02-21 15:15:00
10:35 AM,28.4,14.0,55,30.14,10.0,NW,19.6,23.0,N/A,Snow,Light Snow,310,2013-02-21 15:35:00
10:55 AM,28.4,14.0,55,30.14,10.0,NW,20.7,26.5,N/A,Snow,Light Snow,310,2013-02-21 15:55:00
11:15 AM,30.2,14.0,51,30.14,10.0,NW,16.1,24.2,N/A,,Overcast,320,2013-02-21 16:15:00
11:35 AM,30.2,14.0,51,30.13,10.0,WNW,20.7,-,N/A,,Overcast,300,2013-02-21 16:35:00
11:55 AM,30.2,14.0,51,30.13,10.0,NW,12.7,-,N/A,,Overcast,310,2013-02-21 16:55:00
12:15 PM,30.2,14.0,51,30.12,10.0,NW,19.6,26.5,N/A,,Mostly Cloudy,310,2013-02-21 17:15:00
12:35 PM,32.0,14.0,48,30.11,10.0,NW,15.0,23.0,N/A,,Mostly Cloudy,320,2013-02-21 17:35:00
12:55 PM,32.0,14.0,48,30.12,10.0,NW,15.0,21.9,N/A,,Mostly Cloudy,320,2013-02-21 17:55:00
1:15 PM,33.8,14.0,44,30.11,10.0,NW,15.0,21.9,N/A,,Mostly Cloudy,310,2013-02-21 18:15:00
1:35 PM,32.0,14.0,48,30.11,10.0,NNW,13.8,27.6,N/A,,Mostly Cloudy,330,2013-02-21 18:35:00
1:55 PM,32.0,14.0,48,30.12,10.0,NW,16.1,25.3,N/A,,Mostly Cloudy,310,2013-02-21 18:55:00
2:15 PM,32.0,14.0,48,30.12,10.0,NW,13.8,-,N/A,,Mostly Cloudy,310,2013-02-21 19:15:00
2:35 PM,33.8,15.8,48,30.12,10.0,NW,15.0,24.2,N/A,,Mostly Cloudy,320,2013-02-21 19:35:00
2:55 PM,33.8,15.8,48,30.11,10.0,NNW,15.0,25.3,N/A,,Mostly Cloudy,330,2013-02-21 19:55:00
3:15 PM,33.8,15.8,48,30.11,10.0,NW,16.1,21.9,N/A,,Partly Cloudy,320,2013-02-21 20:15:00
3:35 PM,33.8,15.8,48,30.12,10.0,NW,17.3,21.9,N/A,,Clear,320,2013-02-21 20:35:00
3:55 PM,33.8,15.8,48,30.13,10.0,WNW,16.1,23.0,N/A,,Clear,300,2013-02-21 20:55:00
4:15 PM,33.8,15.8,48,30.13,10.0,NNW,11.5,21.9,N/A,,Clear,340,2013-02-21 21:15:00
4:35 PM,33.8,15.8,48,30.13,10.0,NNW,18.4,25.3,N/A,,Clear,340,2013-02-21 21:35:00
4:55 PM,33.8,15.8,48,30.14,10.0,NW,15.0,23.0,N/A,,Clear,320,2013-02-21 21:55:00
5:35 PM,32.0,15.8,51,30.14,10.0,NNW,13.8,19.6,N/A,,Clear,330,2013-02-21 22:35:00
5:55 PM,32.0,15.8,51,30.16,10.0,NW,11.5,19.6,N/A,,Clear,320,2013-02-21 22:55:00
6:15 PM,32.0,17.6,55,30.18,10.0,NW,10.4,17.3,N/A,,Clear,320,2013-02-21 23:15:00
6:35 PM,32.0,17.6,55,30.20,10.0,NW,9.2,-,N/A,,Clear,320,2013-02-21 23:35:00
6:55 PM,32.0,17.6,55,30.23,10.0,WNW,8.1,-,N/A,,Clear,300,2013-02-21 23:55:00
7:15 PM,32.0,17.6,55,30.24,10.0,West,4.6,-,N/A,,Clear,270,2013-02-22 00:15:00
7:35 PM,32.0,17.6,55,30.25,10.0,West,8.1,-,N/A,,Clear,280,2013-02-22 00:35:00
7:55 PM,32.0,17.6,55,30.25,10.0,NNW,8.1,-,N/A,,Clear,330,2013-02-22 00:55:00
8:15 PM,32.0,17.6,55,30.26,10.0,NW,9.2,-,N/A,,Clear,320,2013-02-22 01:15:00
8:35 PM,32.0,17.6,55,30.26,10.0,North,4.6,-,N/A,,Clear,350,2013-02-22 01:35:00
8:55 PM,30.2,17.6,60,30.25,10.0,North,9.2,-,N/A,,Clear,350,2013-02-22 01:55:00
9:15 PM,32.0,17.6,55,30.27,10.0,North,11.5,-,N/A,,Clear,350,2013-02-22 02:15:00
9:35 PM,32.0,17.6,55,30.28,10.0,North,12.7,17.3,N/A,,Clear,360,2013-02-22 02:35:00
9:55 PM,30.2,17.6,60,30.28,10.0,North,8.1,-,N/A,,Clear,360,2013-02-22 02:55:00
10:15 PM,30.2,17.6,60,30.28,10.0,North,6.9,-,N/A,,Clear,350,2013-02-22 03:15:00
10:35 PM,30.2,17.6,60,30.29,10.0,North,8.1,-,N/A,,Clear,360,2013-02-22 03:35:00
10:55 PM,30.2,17.6,60,30.30,10.0,NNE,4.6,-,N/A,,Clear,20,2013-02-22 03:55:00
11:15 PM,28.4,17.6,64,30.30,10.0,North,6.9,-,N/A,,Clear,10,2013-02-22 04:15:00
11:35 PM,28.4,17.6,64,30.30,10.0,North,6.9,-,N/A,,Clear,360,2013-02-22 04:35:00
11:55 PM,28.4,17.6,64,30.30,10.0,North,5.8,-,N/A,,Clear,10,2013-02-22 04:55:00